Weather History for West Palm Beach, FL

Change the Weather History Date:

Tuesday, October 9, 2012

  Actual Average Record
Temperature  
Mean Temperature 83 °F 80 °F  
Max Temperature 89 °F 86 °F 94 °F (1925)
Min Temperature 76 °F 73 °F 54 °F (1920)
Degree Days  
Heating Degree Days 0 0  
Month to date heating degree days 0 0  
Since 1 July heating degree days 0 0  
Cooling Degree Days 18 15  
Month to date cooling degree days 163 137  
Year to date cooling degree days 3580 3345  
Growing Degree Days 32 (Base 50)    
Moisture  
Dew Point 74 °F    
Average Humidity 80    
Maximum Humidity 100    
Minimum Humidity 59    
Precipitation  
Precipitation 0.00 in 0.19 in 2.37 in (1924)
Month to date precipitation 2.34 1.78  
Year to date precipitation 69.74 50.85  
Snow  
Snow 0.00 in - - ()
Month to date snowfall 0.0  
Since 1 July snowfall 0.0  
Since 1 September snowfall 0.0  
Snow Depth 0.00 in    
Sea Level Pressure  
Sea Level Pressure 29.98 in    
Wind  
Wind Speed 6 mph (NNE)    
Max Wind Speed 13 mph    
Max Gust Speed 25 mph    
Visibility 10 miles    
Events      
T = Trace of Precipitation, MM = Missing Value Source: NWS Daily Summary

Daily Weather History Graph

Daily Weather History Graph

Search for Another Location

Airport:

Trip Planner

Search our weather history database for the weather conditions in past years. The results will help you decide how hot, cold, wet, or windy it might be!

Date:

Astronomy

Oct. 09, 2012 Rise Set
Actual Time 7:16 AM EDT 6:57 PM EDT
Civil Twilight 6:53 AM EDT 7:20 PM EDT
Nautical Twilight 6:26 AM EDT 7:47 PM EDT
Astronomical Twilight 5:59 AM EDT 8:14 PM EDT
Moon 1:24 AM EDT (10/9) 2:54 PM EDT (10/9)
Length of Visible Light 12h 27m
Length of Day
11h 40m
Last Quarter, 37% of the Moon is Illuminated
Oct 9
Last Quarter
Oct 15
New
Oct 21
First Quarter
Oct 29
Full
Nov 6
Last Quarter

Hourly Weather History & Observations

Time (EDT) Temp. Heat Index Dew Point Humidity Pressure Visibility Wind Dir Wind Speed Gust Speed Precip Events Conditions
12:53 AM 80.1 °F 85.4 °F 75.9 °F 87% 29.97 in 10.0 mi Calm Calm - N/A   Mostly Cloudy
1:53 AM 79.0 °F - 75.9 °F 90% 29.96 in 10.0 mi Calm Calm - N/A   Scattered Clouds
2:53 AM 78.1 °F - 75.9 °F 93% 29.95 in 10.0 mi NW 3.5 mph - N/A   Scattered Clouds
3:53 AM 77.0 °F - 75.0 °F 94% 29.95 in 10.0 mi Calm Calm - N/A   Scattered Clouds
4:53 AM 77.0 °F - 75.9 °F 96% 29.95 in 10.0 mi Calm Calm - N/A   Partly Cloudy
5:53 AM 77.0 °F - 75.0 °F 94% 29.96 in 10.0 mi NNW 5.8 mph - N/A   Partly Cloudy
6:53 AM 75.9 °F - 75.0 °F 97% 29.97 in 10.0 mi NW 4.6 mph - N/A   Scattered Clouds
7:53 AM 77.0 °F - 73.9 °F 90% 29.98 in 10.0 mi NNW 3.5 mph - N/A   Scattered Clouds
8:53 AM 81.0 °F 86.2 °F 73.9 °F 79% 29.99 in 10.0 mi North 5.8 mph - N/A   Scattered Clouds
9:53 AM 84.0 °F 91.2 °F 73.9 °F 72% 30.00 in 10.0 mi North 4.6 mph - N/A   Scattered Clouds
10:53 AM 87.1 °F 94.5 °F 73.0 °F 63% 30.01 in 10.0 mi Variable 5.8 mph - N/A   Scattered Clouds
11:17 AM 87.8 °F 95.6 °F 73.4 °F 62% 30.01 in 10.0 mi NE 4.6 mph - N/A   Mostly Cloudy
11:53 AM 84.9 °F 90.7 °F 72.0 °F 65% 30.01 in 10.0 mi NE 8.1 mph - N/A   Mostly Cloudy
12:40 PM 87.8 °F 95.6 °F 73.4 °F 62% 30.00 in 10.0 mi ENE 9.2 mph - N/A   Scattered Clouds
12:53 PM 88.0 °F 95.6 °F 73.0 °F 61% 30.00 in 10.0 mi ENE 9.2 mph - N/A   Scattered Clouds
1:53 PM 88.0 °F 93.8 °F 71.1 °F 57% 29.98 in 10.0 mi NNE 10.4 mph - N/A   Scattered Clouds
2:53 PM 88.0 °F 93.8 °F 71.1 °F 57% 29.97 in 10.0 mi ENE 10.4 mph - N/A   Scattered Clouds
3:53 PM 88.0 °F 94.7 °F 72.0 °F 59% 29.96 in 10.0 mi NE 10.4 mph 25.3 mph N/A   Scattered Clouds
4:53 PM 87.1 °F 93.6 °F 72.0 °F 61% 29.96 in 10.0 mi NE 9.2 mph - N/A   Scattered Clouds
5:53 PM 84.9 °F 92.1 °F 73.9 °F 69% 29.96 in 10.0 mi NE 10.4 mph - N/A   Scattered Clouds
6:53 PM 84.0 °F 91.2 °F 73.9 °F 72% 29.96 in 10.0 mi NE 9.2 mph - N/A   Scattered Clouds
7:53 PM 82.9 °F 89.4 °F 73.9 °F 74% 29.98 in 10.0 mi North 10.4 mph - N/A   Scattered Clouds
8:53 PM 82.9 °F 89.4 °F 73.9 °F 74% 30.00 in 10.0 mi NNE 8.1 mph - N/A   Scattered Clouds
9:53 PM 82.0 °F 88.6 °F 75.0 °F 79% 30.02 in 10.0 mi North 3.5 mph - N/A   Mostly Cloudy
10:53 PM 82.0 °F 87.9 °F 73.9 °F 76% 30.02 in 10.0 mi North 3.5 mph - N/A   Scattered Clouds
11:53 PM 82.0 °F 87.9 °F 73.9 °F 76% 30.02 in 10.0 mi NNE 5.8 mph - N/A   Scattered Clouds